Groton, South Dakota, United States (57445)
Lat: 45.45N, Lon: 98.1W
Wx Zone: SDZ006
Local Info
Past Weather Observations for Monday, April 14, 2014

NOTE: This archive is for the closest National Weather Service station to Groton. Information may differ from the station used for current weather conditions.

Time Weather Temperature Dewpoint Humidity Pressure Winds Precip Visibility
23:53
Clear
16°F / -9°C 9°F / -13°C 73% 30.18 in
(1022 mb)
Calm - 9SM
22:53
Clear
18°F / -8°C 9°F / -13°C 68% 30.18 in
(1022 mb)
Calm - 10SM
21:53
Clear
19°F / -7°C 10°F / -12°C 68% 30.21 in
(1023 mb)
NE 4.6 mph
(NE 7 kph)
- 10SM
20:53
Clear
19°F / -7°C 10°F / -12°C 68% 30.21 in
(1023 mb)
NE 4.6 mph
(NE 7 kph)
- 10SM
19:53
Clear
25°F / -4°C 9°F / -13°C 50% 30.18 in
(1022 mb)
NNE 9.2 mph
(NNE 15 kph)
- 10SM
18:53
Overcast
28°F / -2°C 10°F / -12°C 47% 30.18 in
(1022 mb)
N 10.4 mph
(N 17 kph)
- 10SM
17:53
Overcast
30°F / -1°C 10°F / -12°C 43% 30.18 in
(1022 mb)
N 17.3 mph
(N 28 kph)
- 10SM
16:53
Mostly Cloudy
34°F / 1°C 12°F / -11°C 41% 30.18 in
(1022 mb)
N 19.6 mph
(N 32 kph)
- 10SM
15:53
Overcast
32°F / 0°C 18°F / -8°C 55% 30.18 in
(1022 mb)
NNE 18.4 mph
(NNE 30 kph)
0.00 in
(0.00 mm)
10SM
14:53
Overcast
34°F / 1°C 18°F / -8°C 51% 30.18 in
(1022 mb)
NNW 18.4 mph
(NNW 30 kph)
0.00 in
(0.00 mm)
10SM
13:53
Mostly Cloudy
34°F / 1°C 16°F / -9°C 48% 30.18 in
(1022 mb)
NNW 9.2 mph
(NNW 15 kph)
0.00 in
(0.00 mm)
10SM
12:53
Overcast
34°F / 1°C 16°F / -9°C 48% 30.21 in
(1023 mb)
NW 16.1 mph
(NW 26 kph)
- 10SM
11:53
Overcast
34°F / 1°C 10°F / -12°C 38% 30.21 in
(1023 mb)
W 10.4 mph
(W 17 kph)
- 10SM
10:53
Mostly Cloudy
32°F / 0°C 10°F / -12°C 40% 30.21 in
(1023 mb)
N 9.2 mph
(N 15 kph)
- 10SM
09:53
Partly Cloudy
30°F / -1°C 10°F / -12°C 43% 30.24 in
(1024 mb)
NNW 8.1 mph
(NNW 13 kph)
- 10SM
08:53
Overcast
28°F / -2°C 10°F / -12°C 47% 30.24 in
(1024 mb)
NNW 3.5 mph
(NNW 6 kph)
- 10SM
07:53
Overcast
25°F / -4°C 14°F / -10°C 63% 30.24 in
(1024 mb)
N 3.5 mph
(N 6 kph)
- 10SM
06:53
Overcast
21°F / -6°C 16°F / -9°C 80% 30.24 in
(1024 mb)
WNW 3.5 mph
(WNW 6 kph)
- 10SM
05:53
Overcast
19°F / -7°C 14°F / -10°C 79% 30.21 in
(1023 mb)
NNW 4.6 mph
(NNW 7 kph)
- 10SM
04:53
Overcast
18°F / -8°C 14°F / -10°C 86% 30.21 in
(1023 mb)
NNW 4.6 mph
(NNW 7 kph)
- 10SM
03:53
Clear
16°F / -9°C 12°F / -11°C 86% 30.21 in
(1023 mb)
NNW 8.1 mph
(NNW 13 kph)
- 10SM
02:53
Clear
18°F / -8°C 12°F / -11°C 79% 30.21 in
(1023 mb)
NNW 8.1 mph
(NNW 13 kph)
- 10SM
01:53
Clear
18°F / -8°C 14°F / -10°C 86% 30.21 in
(1023 mb)
NNW 10.4 mph
(NNW 17 kph)
- 10SM
00:53
Clear
19°F / -7°C 14°F / -10°C 79% 30.21 in
(1023 mb)
NNW 11.5 mph
(NNW 19 kph)
- 10SM
Time Weather Temperature Dewpoint Humidity Pressure Winds Precip Visibility


Weather for websites

WeatherForYou.com, LLC is not responsible for any damages or problems caused by this service. Current weather conditions are obtained from the closest station including government and personal stations which may have varying degrees of accuracy. Weather forecasts are derived from the NOAA NDFD. Like all things, this site belongs to Jesus Christ... He just trusts me to maintain it. If you have any questions or comments email webmaster@weatherforyou.com

Copyright © 2014, WeatherForYou.com LLC. All rights reserved.